Powrót do katalogu

STARLINK-11430

AktywnyŁącznośćVLEO
NORAD 62916·PAYLOAD·🇺🇸 United States

Wystrzelony Feb 8, 2025 z Cape Canaveral Space Force Station

Loading…

Następne Przeloty (najbliższe 24 godziny)

TLE

ŚwieżeSource: CelesTrak SupGP

Epoka: Sep 14, 2026, 21:31 UTC

1 62916C 25027K   26257.89701389  .00111550  00000+0  86535-3 0  2576
2 62916  43.0007 287.5876 0001739 249.9289 158.7316 15.70812076    15

Śledź STARLINK-11430 w czasie rzeczywistym z AllMySat

Download on the App Store